Hourly Data Report for June 20, 2012

HALIFAX STANFIELD INT'L A
NOVA SCOTIA

44°52'48.060" N
63°30'00.050" W
145.40 m
8202250
71395
YHZ

Download Data

Hourly Data (June 2012)
Hourly Data Report for June 20, 2012
TIME
LST
Temp Definition
°C
Dew Point Definition
°C
Rel Hum Definition
%
Precip. Amount Definition
mm

Wind Dir Definition
10's deg

Wind Spd Definition
km/h
Visibility Definition
km
Stn Press Definition
kPa
Hmdx Definition


Wind Chill Definition


Weather Definition


00:00 11.3 11.1 99   22 13 0.8 99.96     Fog
01:00 11.2 11.2 100   25 13 0.4 99.91     Fog
02:00 11.2 11.2 100   28 7 0.8 99.88     Fog
03:00 11.4 11.2 99   21 7 8.0 99.80     Fog
04:00 11.6 11.0 96   22 9 8.0 99.77     Fog
05:00 11.5 10.7 95   20 11 19.3 99.68     Cloudy
06:00 12.3 11.3 94   23 13 19.3 99.75     Cloudy
07:00 13.0 11.9 93   23 20 16.1 99.69     Cloudy
08:00 14.0 12.5 91   24 19 12.9 99.67     Cloudy
09:00 15.1 13.2 88   24 19 16.1 99.58     Cloudy
10:00 16.4 14.0 86   23 15 16.1 99.50     Cloudy
11:00 19.8 15.7 77   23 11 24.1 99.42     Mostly Cloudy
12:00 21.5 16.1 71   23 15 24.1 99.33 26   Mostly Cloudy
13:00 23.7 17.2 67   21 20 24.1 99.23 29   Mostly Cloudy
14:00 26.2 18.8 64   25 20 24.1 99.13 33   Cloudy
15:00 26.1 19.0 65   23 13 24.1 99.05 33   Cloudy
16:00 24.9 18.8 69   22 13 24.1 99.02 32   Cloudy
17:00 24.0 18.1 70   21 11 24.1 98.99 30   Cloudy
18:00 23.5 18.5 74   20 11 24.1 98.89 30   Cloudy
19:00 23.0 18.5 76   21 9 24.1 98.89 29   Cloudy
20:00 22.0 18.2 79   22 13 24.1 98.85 28   Cloudy
21:00 21.3 18.5 84   34 11 24.1 98.90 28   Mostly Cloudy
22:00 20.4 17.1 81   32 13 24.1 98.88 26   Mostly Cloudy
23:00 18.9 15.5 81   29 11 24.1 98.87     Mainly Clear

Notes on Data Quality.

Legend

  • E = Estimated
  • M = Missing
  • NA = Not Available*
  • [empty] = Indicates an unobserved value
Date modified: